This demonstration page uses our WeatherBlox Daily Observations layout. Learn more.

Left ArrowRight Arrow

39.92423, -83.80882

Hourly Observations for February 1, 2016

Temp ( °F °C ) Dew Point ( °F °C ) Humidity (%) Winds ( mph kmh ) Pressure ( in mb ) Visibility ( mi km ) Precip ( " mm )
12:44 am 00:44 Cloudy with Light Rain 48 9 46 8 94 94 W 15 24 29.80 1009 4 6 0.01 0.25
12:56 am 00:56 Cloudy with Light Rain 49 9.4 47 8.3 93 93 W 14 22 29.79 1009 10 16 0.01 0.25
1:27 am 01:27 Cloudy with Light Rain 48 9 46 8 94 94 WNW 12 19 29.80 1009 7 11 N/A
1:35 am 01:35 Cloudy 46 8 45 7 93 93 W 20 31 29.80 1009 10 16 N/A
1:56 am 01:56 Cloudy 46 7.7 43 6.1 90 90 W 15 24 29.82 1010 10 16 N/A
2:28 am 02:28 Cloudy 45 7 43 6 93 93 W 12 19 29.85 1011 10 16 N/A
2:56 am 02:56 Cloudy 43 6.1 39 3.8 85 85 WNW 15 24 29.87 1011 10 16 N/A
3:11 am 03:11 Cloudy 43 6 39 4 87 87 W 12 19 29.91 1013 10 16 N/A
3:56 am 03:56 Cloudy 41 5 38 3.3 89 89 WNW 10 17 29.89 1012 8 13 N/A
4:09 am 04:09 Cloudy 41 5 37 3 87 87 WNW 12 19 29.91 1013 8 13 N/A
4:56 am 04:56 Cloudy 40 4.4 36 2.2 86 86 WNW 13 20 29.91 1013 10 16 N/A
5:56 am 05:56 Mostly Cloudy 38 3.3 35 1.6 89 89 NW 7 11 29.93 1014 10 16 N/A
6:08 am 06:08 Mostly Cloudy 37 3 36 2 93 93 NW 6 9 29.97 1015 10 16 N/A
6:28 am 06:28 Partly Cloudy 37 3 34 1 87 87 NW 3 6 29.97 1015 9 14 N/A
6:56 am 06:56 Mostly Clear 36 2.2 34 1.1 93 93 NW 5 7 29.97 1015 10 16 N/A
7:09 am 07:09 Mostly Cloudy 36 2 34 1 93 93 NNW 6 9 30.03 1017 10 16 N/A
7:56 am 07:56 Mostly Cloudy 36 2.2 33 0.5 89 89 NW 6 9 29.99 1016 10 16 N/A
8:56 am 08:56 Cloudy 38 3.3 33 0.5 82 82 NW 5 7 30.01 1016 10 16 N/A
9:56 am 09:56 Partly Cloudy 39 3.8 33 0.5 79 79 NE 7 11 30.01 1016 10 16 N/A
10:07 am 10:07 Mostly Cloudy 39 4 34 1 81 81 NE 7 11 30.03 1017 10 16 N/A
10:56 am 10:56 Mostly Cloudy 41 5 33 0.5 73 73 ENE 3 6 30.03 1017 10 16 N/A
11:28 am 11:28 Mostly Cloudy 43 6 34 1 71 71 VRB 6 9 30.06 1018 10 16 N/A
11:56 am 11:56 Mostly Sunny 42 5.5 33 0.5 71 71 ENE 3 6 30.03 1017 10 16 N/A
12:56 pm 12:56 Sunny 41 5 33 0.5 73 73 WNW 3 6 30.04 1017 10 16 N/A
1:56 pm 13:56 Mostly Sunny 44 6.6 33 0.5 65 65 NW 5 7 30.03 1017 10 16 N/A
2:56 pm 14:56 Mostly Sunny 45 7.2 33 0.5 63 63 VRB 3 6 30.02 1017 10 16 N/A
3:56 pm 15:56 Partly Cloudy 47 8.3 34 1.1 61 61 W 5 7 30.03 1017 10 16 N/A
4:56 pm 16:56 Sunny 46 7.7 34 1.1 63 63 NNW 7 11 30.04 1017 10 16 N/A
5:56 pm 17:56 Clear 41 5 33 0.5 73 73 NW 6 9 30.07 1018 10 16 N/A
6:56 pm 18:56 Cloudy 60 15.5 49 9.4 67 67 SSW 14 22 29.69 1006 10 16 N/A
7:56 pm 19:56 Clear 36 2.2 32 undefined 86 86 N N/A 30.11 1020 10 16 N/A
8:56 pm 20:56 Clear 31 -0.5 30 -1.1 96 96 ENE 3 6 30.13 1020 10 16 N/A
9:56 pm 21:56 Clear 30 -1.1 30 -1.1 100 100 N N/A 30.15 1021 10 16 N/A
10:56 pm 22:56 Clear 29 -1.6 28 -2.2 96 96 ENE 5 7 30.14 1021 7 11 N/A
11:56 pm 23:56 Clear 27 -2.7 27 -2.7 100 100 ENE 6 9 30.14 1021 7 11 N/A

Powered by AerisWeather